Location: Gerlach
(40.6516°N, 119.3568°W)
Time: 05:11:03
(UTC-07:00)

Explorer 11/Cluster Stage 4 - Pass Details

Date: 06 February 2023
Orbit: 466 x 1241 km, 28.8° (Epoch: 02 April)

Event Time Altitude Azimuth Distance (km) Brightness Sun altitude
Exits shadow 04:41:30 27° 203° (SSW) 2,066 8.4 -27.1°
Maximum altitude 04:43:55 32° 172° (S) 1,908 8.5 -26.6°
Drops below altitude 10° 04:50:55 10° 113° (ESE) 3,200 10.6 -25.3°
Sets 04:54:10 0° 104° (ESE) 4,164 11.6 -24.6°
